Location: Unspecified
(0.0000°N, 0.0000°E)
Time: 18:54:17
(UTC+00:00)

N. Korean satellite - Pass Details

Date: 24 November 2017
Orbit: 460 x 514 km, 97.2° (Epoch: 20 November)

Event Time Altitude Azimuth Distance (km) Brightness Sun altitude
Rises 18:04:22 0° 157° (SSE) 2,482 10.1 -4.1°
Reaches altitude 10° 18:06:29 10° 149° (SSE) 1,608 9.1 -4.6°
Maximum altitude 18:09:43 38° 79° (E) 721 7.0 -5.3°
Drops below altitude 10° 18:12:57 10° 10° (N) 1,614 8.9 -6.1°
Sets 18:15:05 0° 2° (N) 2,494 9.9 -6.6°
